ICEYE-X8 (47510 NORAD) Tracking and Keplerian Element Data

This shows tracking and keplerian element data for the satellite.

Feedback or suggestion? Click here.




ElementValue
Catalog47510
NameICEYE-X8
Epoch Orbit1202
Epoch Day102.16858903
Epoch Year2021
RAAN164.4692
Inclination97.4963
Eccentricity0.0008275
Argument of Perigee346.0791
Mean Anonmoly29.8123
Mean Motion15.12022451
Decay Rate1.042E-05
L11 47510U 21006DB 21102.16858903 .00001042 00000-0 64372-4 0 9995
L22 47510 97.4963 164.4692 0008275 346.0791 29.8123 15.12022451 12024

Live tracking and technical data element details for ICEYE-X8 (NORAD 47510). ICEYE-X8 can be tracked NOW for your location showing map with azimuth and elevation plus other details from your city location.

Track the satellite on the map from your city or location and see movement details for azimuth, elevation, latitude, longitude, range, height, and movement on the map or in text.







IsCatalogInMostPopularTable: catalog: 47510, numindb: 17
Update: records affected: 1



GetName: 47510 ICEYE-X8

Hit Count: updated at: Tue, 13 Apr 2021 04:29:48 GMT